Location: Cahas Mountain Overlook
(37.0833°N, 80.1000°W)
Time: 11:41:42
(UTC-04:00)

A-11 Canister half - Pass Details

Date: 13 February 2026
Orbit: 1524 x 1683 km, 47.3° (Epoch: 16 March)

Event Time Altitude Azimuth Distance (km) Brightness Sun altitude
Rises 19:46:53 0° 270° (W) 4,685 13.1 -22.2°
Reaches altitude 10° 19:50:07 10° 276° (W) 3,694 12.1 -22.8°
Maximum altitude 19:59:01 48° 349° (N) 1,919 9.5 -24.6°
Enters shadow 20:03:42 28° 46° (NE) 2,549 9.8 -25.5°
